<?xml version="1.0" encoding="UTF-8" standalone="no" ?>
<gpx xmlns="http://www.topografix.com/GPX/1/1" xmlns:xsi="http://www.w3.org/2001/XMLSchema-instance" xsi:schemaLocation="http://www.topografix.com/GPX/1/1 http://www.topografix.com/GPX/1/1/gpx.xsd" version="1.1" creator="VisuGPX - https://www.visugpx.com">
  <metadata>
    <name>Rando Laugnac-Cours</name>
    <desc><![CDATA[Rando en lot et garonne de 21km et 435m de dénivelée]]></desc>
  </metadata>
  <trk>
    <name><![CDATA[LaugnacCours]]></name>
    <trkseg>
      <trkpt lat="44.30627" lon="0.60647">
        <ele>187</ele>
        <time>2007-06-04T10:11:55Z</time>
      </trkpt>
      <trkpt lat="44.3061" lon="0.60694">
        <ele>187</ele>
        <time>2007-06-04T10:11:55Z</time>
      </trkpt>
      <trkpt lat="44.306" lon="0.60746">
        <ele>187</ele>
        <time>2007-06-04T10:11:55Z</time>
      </trkpt>
      <trkpt lat="44.30628" lon="0.60761">
        <ele>187</ele>
        <time>2007-06-04T10:11:55Z</time>
      </trkpt>
      <trkpt lat="44.30663" lon="0.60786">
        <ele>187</ele>
        <time>2007-06-04T10:11:55Z</time>
      </trkpt>
      <trkpt lat="44.30688" lon="0.60803">
        <ele>186</ele>
        <time>2007-06-04T10:11:55Z</time>
      </trkpt>
      <trkpt lat="44.30728" lon="0.60816">
        <ele>185</ele>
        <time>2007-06-04T10:11:55Z</time>
      </trkpt>
      <trkpt lat="44.3078" lon="0.60813">
        <ele>183</ele>
        <time>2007-06-04T10:11:55Z</time>
      </trkpt>
      <trkpt lat="44.30852" lon="0.60807">
        <ele>180</ele>
        <time>2007-06-04T10:11:55Z</time>
      </trkpt>
      <trkpt lat="44.30867" lon="0.60819">
        <ele>180</ele>
        <time>2007-06-04T10:11:55Z</time>
      </trkpt>
      <trkpt lat="44.30894" lon="0.60756">
        <ele>169</ele>
        <time>2007-06-04T10:11:55Z</time>
      </trkpt>
      <trkpt lat="44.30904" lon="0.60779">
        <ele>172</ele>
        <time>2007-06-04T10:11:55Z</time>
      </trkpt>
      <trkpt lat="44.30912" lon="0.60788">
        <ele>172</ele>
        <time>2007-06-04T10:11:55Z</time>
      </trkpt>
      <trkpt lat="44.30918" lon="0.6076">
        <ele>166</ele>
        <time>2007-06-04T10:11:55Z</time>
      </trkpt>
      <trkpt lat="44.30933" lon="0.60723">
        <ele>157</ele>
        <time>2007-06-04T10:11:55Z</time>
      </trkpt>
      <trkpt lat="44.30948" lon="0.60681">
        <ele>151</ele>
        <time>2007-06-04T10:11:55Z</time>
      </trkpt>
      <trkpt lat="44.30958" lon="0.60641">
        <ele>147</ele>
        <time>2007-06-04T10:11:55Z</time>
      </trkpt>
      <trkpt lat="44.30964" lon="0.60619">
        <ele>146</ele>
        <time>2007-06-04T10:11:55Z</time>
      </trkpt>
      <trkpt lat="44.31004" lon="0.60587">
        <ele>137</ele>
        <time>2007-06-04T10:11:55Z</time>
      </trkpt>
      <trkpt lat="44.31046" lon="0.60568">
        <ele>130</ele>
        <time>2007-06-04T10:11:55Z</time>
      </trkpt>
      <trkpt lat="44.3111" lon="0.60552">
        <ele>121</ele>
        <time>2007-06-04T10:11:55Z</time>
      </trkpt>
      <trkpt lat="44.31175" lon="0.60536">
        <ele>117</ele>
        <time>2007-06-04T10:11:55Z</time>
      </trkpt>
      <trkpt lat="44.31212" lon="0.60524">
        <ele>117</ele>
        <time>2007-06-04T10:11:55Z</time>
      </trkpt>
      <trkpt lat="44.31251" lon="0.60505">
        <ele>117</ele>
        <time>2007-06-04T10:11:55Z</time>
      </trkpt>
      <trkpt lat="44.31297" lon="0.60506">
        <ele>117</ele>
        <time>2007-06-04T10:11:55Z</time>
      </trkpt>
      <trkpt lat="44.31378" lon="0.60512">
        <ele>122</ele>
        <time>2007-06-04T10:11:55Z</time>
      </trkpt>
      <trkpt lat="44.31393" lon="0.60512">
        <ele>124</ele>
        <time>2007-06-04T10:11:55Z</time>
      </trkpt>
      <trkpt lat="44.31434" lon="0.60506">
        <ele>129</ele>
        <time>2007-06-04T10:11:55Z</time>
      </trkpt>
      <trkpt lat="44.31462" lon="0.60502">
        <ele>132</ele>
        <time>2007-06-04T10:11:55Z</time>
      </trkpt>
      <trkpt lat="44.31527" lon="0.60462">
        <ele>136</ele>
        <time>2007-06-04T10:11:55Z</time>
      </trkpt>
      <trkpt lat="44.31595" lon="0.60428">
        <ele>144</ele>
        <time>2007-06-04T10:11:55Z</time>
      </trkpt>
      <trkpt lat="44.31622" lon="0.60289">
        <ele>172</ele>
        <time>2007-06-04T10:11:55Z</time>
      </trkpt>
      <trkpt lat="44.31663" lon="0.60291">
        <ele>175</ele>
        <time>2007-06-04T10:11:55Z</time>
      </trkpt>
      <trkpt lat="44.31706" lon="0.60282">
        <ele>174</ele>
        <time>2007-06-04T10:11:55Z</time>
      </trkpt>
      <trkpt lat="44.31741" lon="0.60182">
        <ele>181</ele>
        <time>2007-06-04T10:11:55Z</time>
      </trkpt>
      <trkpt lat="44.3189" lon="0.59816">
        <ele>190</ele>
        <time>2007-06-04T10:11:55Z</time>
      </trkpt>
      <trkpt lat="44.31936" lon="0.59686">
        <ele>193</ele>
        <time>2007-06-04T10:11:55Z</time>
      </trkpt>
      <trkpt lat="44.3199" lon="0.59601">
        <ele>192</ele>
        <time>2007-06-04T10:11:55Z</time>
      </trkpt>
      <trkpt lat="44.32001" lon="0.59632">
        <ele>191</ele>
        <time>2007-06-04T10:11:55Z</time>
      </trkpt>
      <trkpt lat="44.32253" lon="0.5959">
        <ele>196</ele>
        <time>2007-06-04T10:11:55Z</time>
      </trkpt>
      <trkpt lat="44.32324" lon="0.59555">
        <ele>199</ele>
        <time>2007-06-04T10:11:55Z</time>
      </trkpt>
      <trkpt lat="44.32482" lon="0.59468">
        <ele>206</ele>
        <time>2007-06-04T10:11:55Z</time>
      </trkpt>
      <trkpt lat="44.32519" lon="0.59452">
        <ele>210</ele>
        <time>2007-06-04T10:11:55Z</time>
      </trkpt>
      <trkpt lat="44.32552" lon="0.59416">
        <ele>215</ele>
        <time>2007-06-04T10:11:55Z</time>
      </trkpt>
      <trkpt lat="44.32561" lon="0.59428">
        <ele>216</ele>
        <time>2007-06-04T10:11:55Z</time>
      </trkpt>
      <trkpt lat="44.3263" lon="0.59492">
        <ele>218</ele>
        <time>2007-06-04T10:11:55Z</time>
      </trkpt>
      <trkpt lat="44.32715" lon="0.59571">
        <ele>220</ele>
        <time>2007-06-04T10:11:55Z</time>
      </trkpt>
      <trkpt lat="44.32773" lon="0.59616">
        <ele>219</ele>
        <time>2007-06-04T10:11:55Z</time>
      </trkpt>
      <trkpt lat="44.32801" lon="0.59626">
        <ele>217</ele>
        <time>2007-06-04T10:11:55Z</time>
      </trkpt>
      <trkpt lat="44.32832" lon="0.5963">
        <ele>216</ele>
        <time>2007-06-04T10:11:55Z</time>
      </trkpt>
      <trkpt lat="44.32854" lon="0.5962">
        <ele>217</ele>
        <time>2007-06-04T10:11:55Z</time>
      </trkpt>
      <trkpt lat="44.32911" lon="0.59604">
        <ele>219</ele>
        <time>2007-06-04T10:11:55Z</time>
      </trkpt>
      <trkpt lat="44.32972" lon="0.59604">
        <ele>220</ele>
        <time>2007-06-04T10:11:55Z</time>
      </trkpt>
      <trkpt lat="44.3303" lon="0.59597">
        <ele>220</ele>
        <time>2007-06-04T10:11:55Z</time>
      </trkpt>
      <trkpt lat="44.3305" lon="0.59595">
        <ele>219</ele>
        <time>2007-06-04T10:11:55Z</time>
      </trkpt>
      <trkpt lat="44.33088" lon="0.59567">
        <ele>217</ele>
        <time>2007-06-04T10:11:55Z</time>
      </trkpt>
      <trkpt lat="44.33124" lon="0.59564">
        <ele>213</ele>
        <time>2007-06-04T10:11:55Z</time>
      </trkpt>
      <trkpt lat="44.33152" lon="0.59568">
        <ele>209</ele>
        <time>2007-06-04T10:11:55Z</time>
      </trkpt>
      <trkpt lat="44.33144" lon="0.59496">
        <ele>209</ele>
        <time>2007-06-04T10:11:55Z</time>
      </trkpt>
      <trkpt lat="44.33106" lon="0.5936">
        <ele>205</ele>
        <time>2007-06-04T10:11:55Z</time>
      </trkpt>
      <trkpt lat="44.33102" lon="0.59338">
        <ele>205</ele>
        <time>2007-06-04T10:11:55Z</time>
      </trkpt>
      <trkpt lat="44.33105" lon="0.59302">
        <ele>204</ele>
        <time>2007-06-04T10:11:55Z</time>
      </trkpt>
      <trkpt lat="44.33114" lon="0.59228">
        <ele>207</ele>
        <time>2007-06-04T10:11:55Z</time>
      </trkpt>
      <trkpt lat="44.33136" lon="0.59202">
        <ele>206</ele>
        <time>2007-06-04T10:11:55Z</time>
      </trkpt>
      <trkpt lat="44.33156" lon="0.59167">
        <ele>206</ele>
        <time>2007-06-04T10:11:55Z</time>
      </trkpt>
      <trkpt lat="44.33167" lon="0.59142">
        <ele>205</ele>
        <time>2007-06-04T10:11:55Z</time>
      </trkpt>
      <trkpt lat="44.33233" lon="0.58972">
        <ele>197</ele>
        <time>2007-06-04T10:11:55Z</time>
      </trkpt>
      <trkpt lat="44.33242" lon="0.58953">
        <ele>197</ele>
        <time>2007-06-04T10:11:55Z</time>
      </trkpt>
      <trkpt lat="44.33278" lon="0.58853">
        <ele>194</ele>
        <time>2007-06-04T10:11:55Z</time>
      </trkpt>
      <trkpt lat="44.33284" lon="0.58797">
        <ele>191</ele>
        <time>2007-06-04T10:11:55Z</time>
      </trkpt>
      <trkpt lat="44.33301" lon="0.58774">
        <ele>192</ele>
        <time>2007-06-04T10:11:55Z</time>
      </trkpt>
      <trkpt lat="44.3333" lon="0.5874">
        <ele>192</ele>
        <time>2007-06-04T10:11:55Z</time>
      </trkpt>
      <trkpt lat="44.3335" lon="0.5874">
        <ele>193</ele>
        <time>2007-06-04T10:11:55Z</time>
      </trkpt>
      <trkpt lat="44.33432" lon="0.58748">
        <ele>194</ele>
        <time>2007-06-04T10:11:55Z</time>
      </trkpt>
      <trkpt lat="44.33465" lon="0.58744">
        <ele>193</ele>
        <time>2007-06-04T10:11:55Z</time>
      </trkpt>
      <trkpt lat="44.33485" lon="0.58729">
        <ele>192</ele>
        <time>2007-06-04T10:11:55Z</time>
      </trkpt>
      <trkpt lat="44.33698" lon="0.58547">
        <ele>174</ele>
        <time>2007-06-04T10:11:55Z</time>
      </trkpt>
      <trkpt lat="44.33715" lon="0.58545">
        <ele>172</ele>
        <time>2007-06-04T10:11:55Z</time>
      </trkpt>
      <trkpt lat="44.33738" lon="0.58544">
        <ele>170</ele>
        <time>2007-06-04T10:11:55Z</time>
      </trkpt>
      <trkpt lat="44.3396" lon="0.58553">
        <ele>155</ele>
        <time>2007-06-04T10:11:55Z</time>
      </trkpt>
      <trkpt lat="44.34261" lon="0.58582">
        <ele>120</ele>
        <time>2007-06-04T10:11:55Z</time>
      </trkpt>
      <trkpt lat="44.34319" lon="0.58588">
        <ele>113</ele>
        <time>2007-06-04T10:11:55Z</time>
      </trkpt>
      <trkpt lat="44.34348" lon="0.58577">
        <ele>111</ele>
        <time>2007-06-04T10:11:55Z</time>
      </trkpt>
      <trkpt lat="44.34402" lon="0.58577">
        <ele>106</ele>
        <time>2007-06-04T10:11:55Z</time>
      </trkpt>
      <trkpt lat="44.34453" lon="0.58574">
        <ele>104</ele>
        <time>2007-06-04T10:11:55Z</time>
      </trkpt>
      <trkpt lat="44.34488" lon="0.58568">
        <ele>102</ele>
        <time>2007-06-04T10:11:55Z</time>
      </trkpt>
      <trkpt lat="44.34532" lon="0.58553">
        <ele>100</ele>
        <time>2007-06-04T10:11:55Z</time>
      </trkpt>
      <trkpt lat="44.34548" lon="0.58522">
        <ele>99</ele>
        <time>2007-06-04T10:11:55Z</time>
      </trkpt>
      <trkpt lat="44.3457" lon="0.58479">
        <ele>99</ele>
        <time>2007-06-04T10:11:55Z</time>
      </trkpt>
      <trkpt lat="44.34595" lon="0.58443">
        <ele>100</ele>
        <time>2007-06-04T10:11:55Z</time>
      </trkpt>
      <trkpt lat="44.34607" lon="0.58403">
        <ele>100</ele>
        <time>2007-06-04T10:11:55Z</time>
      </trkpt>
      <trkpt lat="44.34607" lon="0.58372">
        <ele>100</ele>
        <time>2007-06-04T10:11:55Z</time>
      </trkpt>
      <trkpt lat="44.34603" lon="0.58284">
        <ele>102</ele>
        <time>2007-06-04T10:11:55Z</time>
      </trkpt>
      <trkpt lat="44.34604" lon="0.58256">
        <ele>103</ele>
        <time>2007-06-04T10:11:55Z</time>
      </trkpt>
      <trkpt lat="44.34611" lon="0.58227">
        <ele>105</ele>
        <time>2007-06-04T10:11:55Z</time>
      </trkpt>
      <trkpt lat="44.3466" lon="0.58121">
        <ele>114</ele>
        <time>2007-06-04T10:11:55Z</time>
      </trkpt>
      <trkpt lat="44.34674" lon="0.58095">
        <ele>115</ele>
        <time>2007-06-04T10:11:55Z</time>
      </trkpt>
      <trkpt lat="44.34692" lon="0.58071">
        <ele>116</ele>
        <time>2007-06-04T10:11:55Z</time>
      </trkpt>
      <trkpt lat="44.34708" lon="0.58069">
        <ele>118</ele>
        <time>2007-06-04T10:11:55Z</time>
      </trkpt>
      <trkpt lat="44.34717" lon="0.58077">
        <ele>119</ele>
        <time>2007-06-04T10:11:55Z</time>
      </trkpt>
      <trkpt lat="44.34722" lon="0.58092">
        <ele>122</ele>
        <time>2007-06-04T10:11:55Z</time>
      </trkpt>
      <trkpt lat="44.3472" lon="0.58113">
        <ele>123</ele>
        <time>2007-06-04T10:11:55Z</time>
      </trkpt>
      <trkpt lat="44.34712" lon="0.58146">
        <ele>124</ele>
        <time>2007-06-04T10:11:55Z</time>
      </trkpt>
      <trkpt lat="44.34709" lon="0.58163">
        <ele>124</ele>
        <time>2007-06-04T10:11:55Z</time>
      </trkpt>
      <trkpt lat="44.34728" lon="0.58266">
        <ele>124</ele>
        <time>2007-06-04T10:11:55Z</time>
      </trkpt>
      <trkpt lat="44.34737" lon="0.58288">
        <ele>122</ele>
        <time>2007-06-04T10:11:55Z</time>
      </trkpt>
      <trkpt lat="44.34753" lon="0.58298">
        <ele>122</ele>
        <time>2007-06-04T10:11:55Z</time>
      </trkpt>
      <trkpt lat="44.34779" lon="0.58291">
        <ele>124</ele>
        <time>2007-06-04T10:11:55Z</time>
      </trkpt>
      <trkpt lat="44.34802" lon="0.58278">
        <ele>128</ele>
        <time>2007-06-04T10:11:55Z</time>
      </trkpt>
      <trkpt lat="44.34819" lon="0.58268">
        <ele>131</ele>
        <time>2007-06-04T10:11:55Z</time>
      </trkpt>
      <trkpt lat="44.34835" lon="0.58269">
        <ele>132</ele>
        <time>2007-06-04T10:11:55Z</time>
      </trkpt>
      <trkpt lat="44.34829" lon="0.5825">
        <ele>133</ele>
        <time>2007-06-04T10:11:55Z</time>
      </trkpt>
      <trkpt lat="44.3482" lon="0.58241">
        <ele>133</ele>
        <time>2007-06-04T10:11:55Z</time>
      </trkpt>
      <trkpt lat="44.34808" lon="0.58235">
        <ele>133</ele>
        <time>2007-06-04T10:11:55Z</time>
      </trkpt>
      <trkpt lat="44.34834" lon="0.58205">
        <ele>133</ele>
        <time>2007-06-04T10:11:55Z</time>
      </trkpt>
      <trkpt lat="44.34925" lon="0.58113">
        <ele>129</ele>
        <time>2007-06-04T10:11:55Z</time>
      </trkpt>
      <trkpt lat="44.34983" lon="0.58072">
        <ele>132</ele>
        <time>2007-06-04T10:11:55Z</time>
      </trkpt>
      <trkpt lat="44.3512" lon="0.57983">
        <ele>139</ele>
        <time>2007-06-04T10:11:55Z</time>
      </trkpt>
      <trkpt lat="44.35151" lon="0.57965">
        <ele>144</ele>
        <time>2007-06-04T10:11:55Z</time>
      </trkpt>
      <trkpt lat="44.35166" lon="0.57941">
        <ele>147</ele>
        <time>2007-06-04T10:11:55Z</time>
      </trkpt>
      <trkpt lat="44.35181" lon="0.57909">
        <ele>149</ele>
        <time>2007-06-04T10:11:55Z</time>
      </trkpt>
      <trkpt lat="44.35203" lon="0.57875">
        <ele>158</ele>
        <time>2007-06-04T10:11:55Z</time>
      </trkpt>
      <trkpt lat="44.35233" lon="0.57854">
        <ele>164</ele>
        <time>2007-06-04T10:11:55Z</time>
      </trkpt>
      <trkpt lat="44.35262" lon="0.57842">
        <ele>169</ele>
        <time>2007-06-04T10:11:55Z</time>
      </trkpt>
      <trkpt lat="44.3535" lon="0.57891">
        <ele>188</ele>
        <time>2007-06-04T10:11:55Z</time>
      </trkpt>
      <trkpt lat="44.35357" lon="0.57866">
        <ele>189</ele>
        <time>2007-06-04T10:11:55Z</time>
      </trkpt>
      <trkpt lat="44.35367" lon="0.57858">
        <ele>191</ele>
        <time>2007-06-04T10:11:55Z</time>
      </trkpt>
      <trkpt lat="44.35382" lon="0.57852">
        <ele>192</ele>
        <time>2007-06-04T10:11:55Z</time>
      </trkpt>
      <trkpt lat="44.35427" lon="0.5785">
        <ele>195</ele>
        <time>2007-06-04T10:11:55Z</time>
      </trkpt>
      <trkpt lat="44.35421" lon="0.57784">
        <ele>195</ele>
        <time>2007-06-04T10:11:55Z</time>
      </trkpt>
      <trkpt lat="44.35484" lon="0.57808">
        <ele>195</ele>
        <time>2007-06-04T10:11:55Z</time>
      </trkpt>
      <trkpt lat="44.35539" lon="0.57829">
        <ele>183</ele>
        <time>2007-06-04T10:11:55Z</time>
      </trkpt>
      <trkpt lat="44.35561" lon="0.57798">
        <ele>177</ele>
        <time>2007-06-04T10:11:55Z</time>
      </trkpt>
      <trkpt lat="44.35582" lon="0.57774">
        <ele>173</ele>
        <time>2007-06-04T10:11:55Z</time>
      </trkpt>
      <trkpt lat="44.35599" lon="0.57749">
        <ele>172</ele>
        <time>2007-06-04T10:11:55Z</time>
      </trkpt>
      <trkpt lat="44.35615" lon="0.57732">
        <ele>171</ele>
        <time>2007-06-04T10:11:55Z</time>
      </trkpt>
      <trkpt lat="44.35649" lon="0.57704">
        <ele>175</ele>
        <time>2007-06-04T10:11:55Z</time>
      </trkpt>
      <trkpt lat="44.35655" lon="0.57679">
        <ele>180</ele>
        <time>2007-06-04T10:11:55Z</time>
      </trkpt>
      <trkpt lat="44.35682" lon="0.57687">
        <ele>179</ele>
        <time>2007-06-04T10:11:55Z</time>
      </trkpt>
      <trkpt lat="44.35711" lon="0.57697">
        <ele>180</ele>
        <time>2007-06-04T10:11:55Z</time>
      </trkpt>
      <trkpt lat="44.3574" lon="0.5771">
        <ele>179</ele>
        <time>2007-06-04T10:11:55Z</time>
      </trkpt>
      <trkpt lat="44.3577" lon="0.57725">
        <ele>179</ele>
        <time>2007-06-04T10:11:55Z</time>
      </trkpt>
      <trkpt lat="44.3578" lon="0.5773">
        <ele>178</ele>
        <time>2007-06-04T10:11:55Z</time>
      </trkpt>
      <trkpt lat="44.35814" lon="0.57748">
        <ele>178</ele>
        <time>2007-06-04T10:11:55Z</time>
      </trkpt>
      <trkpt lat="44.35815" lon="0.57748">
        <ele>178</ele>
        <time>2007-06-04T10:11:55Z</time>
      </trkpt>
      <trkpt lat="44.35814" lon="0.57689">
        <ele>185</ele>
        <time>2007-06-04T10:11:55Z</time>
      </trkpt>
      <trkpt lat="44.3581" lon="0.57634">
        <ele>187</ele>
        <time>2007-06-04T10:11:55Z</time>
      </trkpt>
      <trkpt lat="44.35805" lon="0.57596">
        <ele>189</ele>
        <time>2007-06-04T10:11:55Z</time>
      </trkpt>
      <trkpt lat="44.35794" lon="0.57541">
        <ele>191</ele>
        <time>2007-06-04T10:11:55Z</time>
      </trkpt>
      <trkpt lat="44.35778" lon="0.57493">
        <ele>191</ele>
        <time>2007-06-04T10:11:55Z</time>
      </trkpt>
      <trkpt lat="44.35762" lon="0.57463">
        <ele>190</ele>
        <time>2007-06-04T10:11:55Z</time>
      </trkpt>
      <trkpt lat="44.35741" lon="0.57429">
        <ele>190</ele>
        <time>2007-06-04T10:11:55Z</time>
      </trkpt>
      <trkpt lat="44.35721" lon="0.57405">
        <ele>189</ele>
        <time>2007-06-04T10:11:55Z</time>
      </trkpt>
      <trkpt lat="44.35698" lon="0.57374">
        <ele>187</ele>
        <time>2007-06-04T10:11:55Z</time>
      </trkpt>
      <trkpt lat="44.35684" lon="0.57367">
        <ele>187</ele>
        <time>2007-06-04T10:11:55Z</time>
      </trkpt>
      <trkpt lat="44.3565" lon="0.57347">
        <ele>186</ele>
        <time>2007-06-04T10:11:55Z</time>
      </trkpt>
      <trkpt lat="44.35593" lon="0.57313">
        <ele>185</ele>
        <time>2007-06-04T10:11:55Z</time>
      </trkpt>
      <trkpt lat="44.35555" lon="0.57289">
        <ele>186</ele>
        <time>2007-06-04T10:11:55Z</time>
      </trkpt>
      <trkpt lat="44.35519" lon="0.57262">
        <ele>188</ele>
        <time>2007-06-04T10:11:55Z</time>
      </trkpt>
      <trkpt lat="44.35445" lon="0.57191">
        <ele>194</ele>
        <time>2007-06-04T10:11:55Z</time>
      </trkpt>
      <trkpt lat="44.35424" lon="0.57171">
        <ele>195</ele>
        <time>2007-06-04T10:11:55Z</time>
      </trkpt>
      <trkpt lat="44.35415" lon="0.57159">
        <ele>195</ele>
        <time>2007-06-04T10:11:55Z</time>
      </trkpt>
      <trkpt lat="44.35377" lon="0.5713">
        <ele>196</ele>
        <time>2007-06-04T10:11:55Z</time>
      </trkpt>
      <trkpt lat="44.35231" lon="0.57041">
        <ele>195</ele>
        <time>2007-06-04T10:11:55Z</time>
      </trkpt>
      <trkpt lat="44.35163" lon="0.56966">
        <ele>195</ele>
        <time>2007-06-04T10:11:55Z</time>
      </trkpt>
      <trkpt lat="44.35145" lon="0.56918">
        <ele>195</ele>
        <time>2007-06-04T10:11:55Z</time>
      </trkpt>
      <trkpt lat="44.35126" lon="0.56853">
        <ele>195</ele>
        <time>2007-06-04T10:11:55Z</time>
      </trkpt>
      <trkpt lat="44.35116" lon="0.56808">
        <ele>195</ele>
        <time>2007-06-04T10:11:55Z</time>
      </trkpt>
      <trkpt lat="44.35113" lon="0.5677">
        <ele>195</ele>
        <time>2007-06-04T10:11:55Z</time>
      </trkpt>
      <trkpt lat="44.35125" lon="0.5667">
        <ele>195</ele>
        <time>2007-06-04T10:11:55Z</time>
      </trkpt>
      <trkpt lat="44.35084" lon="0.56658">
        <ele>195</ele>
        <time>2007-06-04T10:11:55Z</time>
      </trkpt>
      <trkpt lat="44.35033" lon="0.56636">
        <ele>190</ele>
        <time>2007-06-04T10:11:55Z</time>
      </trkpt>
      <trkpt lat="44.34974" lon="0.56605">
        <ele>183</ele>
        <time>2007-06-04T10:11:55Z</time>
      </trkpt>
      <trkpt lat="44.34937" lon="0.5658">
        <ele>179</ele>
        <time>2007-06-04T10:11:55Z</time>
      </trkpt>
      <trkpt lat="44.34895" lon="0.56553">
        <ele>167</ele>
        <time>2007-06-04T10:11:55Z</time>
      </trkpt>
      <trkpt lat="44.34861" lon="0.56521">
        <ele>158</ele>
        <time>2007-06-04T10:11:55Z</time>
      </trkpt>
      <trkpt lat="44.34816" lon="0.56468">
        <ele>153</ele>
        <time>2007-06-04T10:11:55Z</time>
      </trkpt>
      <trkpt lat="44.34774" lon="0.56413">
        <ele>145</ele>
        <time>2007-06-04T10:11:55Z</time>
      </trkpt>
      <trkpt lat="44.3475" lon="0.56363">
        <ele>139</ele>
        <time>2007-06-04T10:11:55Z</time>
      </trkpt>
      <trkpt lat="44.34738" lon="0.56332">
        <ele>139</ele>
        <time>2007-06-04T10:11:55Z</time>
      </trkpt>
      <trkpt lat="44.34671" lon="0.56331">
        <ele>130</ele>
        <time>2007-06-04T10:11:55Z</time>
      </trkpt>
      <trkpt lat="44.34608" lon="0.56335">
        <ele>122</ele>
        <time>2007-06-04T10:11:55Z</time>
      </trkpt>
      <trkpt lat="44.34555" lon="0.5634">
        <ele>115</ele>
        <time>2007-06-04T10:11:55Z</time>
      </trkpt>
      <trkpt lat="44.34476" lon="0.56359">
        <ele>104</ele>
        <time>2007-06-04T10:11:55Z</time>
      </trkpt>
      <trkpt lat="44.34498" lon="0.56274">
        <ele>106</ele>
        <time>2007-06-04T10:11:55Z</time>
      </trkpt>
      <trkpt lat="44.34449" lon="0.56266">
        <ele>98</ele>
        <time>2007-06-04T10:11:55Z</time>
      </trkpt>
      <trkpt lat="44.34409" lon="0.56264">
        <ele>90</ele>
        <time>2007-06-04T10:11:55Z</time>
      </trkpt>
      <trkpt lat="44.34376" lon="0.56262">
        <ele>85</ele>
        <time>2007-06-04T10:11:55Z</time>
      </trkpt>
      <trkpt lat="44.34332" lon="0.56267">
        <ele>81</ele>
        <time>2007-06-04T10:11:55Z</time>
      </trkpt>
      <trkpt lat="44.34264" lon="0.56294">
        <ele>82</ele>
        <time>2007-06-04T10:11:55Z</time>
      </trkpt>
      <trkpt lat="44.34267" lon="0.56321">
        <ele>82</ele>
        <time>2007-06-04T10:11:55Z</time>
      </trkpt>
      <trkpt lat="44.34303" lon="0.56462">
        <ele>82</ele>
        <time>2007-06-04T10:11:55Z</time>
      </trkpt>
      <trkpt lat="44.34304" lon="0.56478">
        <ele>82</ele>
        <time>2007-06-04T10:11:55Z</time>
      </trkpt>
      <trkpt lat="44.34243" lon="0.56491">
        <ele>88</ele>
        <time>2007-06-04T10:11:55Z</time>
      </trkpt>
      <trkpt lat="44.34107" lon="0.56523">
        <ele>99</ele>
        <time>2007-06-04T10:11:55Z</time>
      </trkpt>
      <trkpt lat="44.33987" lon="0.56544">
        <ele>108</ele>
        <time>2007-06-04T10:11:55Z</time>
      </trkpt>
      <trkpt lat="44.33966" lon="0.56556">
        <ele>109</ele>
        <time>2007-06-04T10:11:55Z</time>
      </trkpt>
      <trkpt lat="44.33743" lon="0.5665">
        <ele>118</ele>
        <time>2007-06-04T10:11:55Z</time>
      </trkpt>
      <trkpt lat="44.33579" lon="0.56562">
        <ele>139</ele>
        <time>2007-06-04T10:11:55Z</time>
      </trkpt>
      <trkpt lat="44.33553" lon="0.5654">
        <ele>146</ele>
        <time>2007-06-04T10:11:55Z</time>
      </trkpt>
      <trkpt lat="44.33464" lon="0.56416">
        <ele>175</ele>
        <time>2007-06-04T10:11:55Z</time>
      </trkpt>
      <trkpt lat="44.33426" lon="0.56378">
        <ele>178</ele>
        <time>2007-06-04T10:11:55Z</time>
      </trkpt>
      <trkpt lat="44.33394" lon="0.56364">
        <ele>179</ele>
        <time>2007-06-04T10:11:55Z</time>
      </trkpt>
      <trkpt lat="44.33365" lon="0.56366">
        <ele>181</ele>
        <time>2007-06-04T10:11:55Z</time>
      </trkpt>
      <trkpt lat="44.33308" lon="0.56381">
        <ele>183</ele>
        <time>2007-06-04T10:11:55Z</time>
      </trkpt>
      <trkpt lat="44.33275" lon="0.56385">
        <ele>183</ele>
        <time>2007-06-04T10:11:55Z</time>
      </trkpt>
      <trkpt lat="44.3325" lon="0.56381">
        <ele>183</ele>
        <time>2007-06-04T10:11:55Z</time>
      </trkpt>
      <trkpt lat="44.33224" lon="0.56371">
        <ele>183</ele>
        <time>2007-06-04T10:11:55Z</time>
      </trkpt>
      <trkpt lat="44.33187" lon="0.5635">
        <ele>183</ele>
        <time>2007-06-04T10:11:55Z</time>
      </trkpt>
      <trkpt lat="44.3316" lon="0.56343">
        <ele>183</ele>
        <time>2007-06-04T10:11:55Z</time>
      </trkpt>
      <trkpt lat="44.33126" lon="0.56342">
        <ele>184</ele>
        <time>2007-06-04T10:11:55Z</time>
      </trkpt>
      <trkpt lat="44.33077" lon="0.56356">
        <ele>184</ele>
        <time>2007-06-04T10:11:55Z</time>
      </trkpt>
      <trkpt lat="44.33065" lon="0.56372">
        <ele>184</ele>
        <time>2007-06-04T10:11:55Z</time>
      </trkpt>
      <trkpt lat="44.33049" lon="0.56385">
        <ele>184</ele>
        <time>2007-06-04T10:11:55Z</time>
      </trkpt>
      <trkpt lat="44.33039" lon="0.56397">
        <ele>184</ele>
        <time>2007-06-04T10:11:55Z</time>
      </trkpt>
      <trkpt lat="44.33029" lon="0.56411">
        <ele>183</ele>
        <time>2007-06-04T10:11:55Z</time>
      </trkpt>
      <trkpt lat="44.3301" lon="0.56434">
        <ele>183</ele>
        <time>2007-06-04T10:11:55Z</time>
      </trkpt>
      <trkpt lat="44.32982" lon="0.56452">
        <ele>182</ele>
        <time>2007-06-04T10:11:55Z</time>
      </trkpt>
      <trkpt lat="44.32962" lon="0.56471">
        <ele>182</ele>
        <time>2007-06-04T10:11:55Z</time>
      </trkpt>
      <trkpt lat="44.32952" lon="0.56487">
        <ele>181</ele>
        <time>2007-06-04T10:11:55Z</time>
      </trkpt>
      <trkpt lat="44.32941" lon="0.5653">
        <ele>182</ele>
        <time>2007-06-04T10:11:55Z</time>
      </trkpt>
      <trkpt lat="44.32926" lon="0.56574">
        <ele>182</ele>
        <time>2007-06-04T10:11:55Z</time>
      </trkpt>
      <trkpt lat="44.32916" lon="0.56595">
        <ele>182</ele>
        <time>2007-06-04T10:11:55Z</time>
      </trkpt>
      <trkpt lat="44.32889" lon="0.56638">
        <ele>181</ele>
        <time>2007-06-04T10:11:55Z</time>
      </trkpt>
      <trkpt lat="44.32867" lon="0.56668">
        <ele>181</ele>
        <time>2007-06-04T10:11:55Z</time>
      </trkpt>
      <trkpt lat="44.32842" lon="0.56707">
        <ele>182</ele>
        <time>2007-06-04T10:11:55Z</time>
      </trkpt>
      <trkpt lat="44.32812" lon="0.56717">
        <ele>182</ele>
        <time>2007-06-04T10:11:55Z</time>
      </trkpt>
      <trkpt lat="44.32761" lon="0.56733">
        <ele>183</ele>
        <time>2007-06-04T10:11:55Z</time>
      </trkpt>
      <trkpt lat="44.32724" lon="0.56734">
        <ele>184</ele>
        <time>2007-06-04T10:11:55Z</time>
      </trkpt>
      <trkpt lat="44.32688" lon="0.56726">
        <ele>186</ele>
        <time>2007-06-04T10:11:55Z</time>
      </trkpt>
      <trkpt lat="44.32633" lon="0.56712">
        <ele>188</ele>
        <time>2007-06-04T10:11:55Z</time>
      </trkpt>
      <trkpt lat="44.32579" lon="0.5671">
        <ele>190</ele>
        <time>2007-06-04T10:11:55Z</time>
      </trkpt>
      <trkpt lat="44.32525" lon="0.56726">
        <ele>192</ele>
        <time>2007-06-04T10:11:55Z</time>
      </trkpt>
      <trkpt lat="44.32474" lon="0.56764">
        <ele>194</ele>
        <time>2007-06-04T10:11:55Z</time>
      </trkpt>
      <trkpt lat="44.32459" lon="0.56791">
        <ele>194</ele>
        <time>2007-06-04T10:11:55Z</time>
      </trkpt>
      <trkpt lat="44.32444" lon="0.56799">
        <ele>194</ele>
        <time>2007-06-04T10:11:55Z</time>
      </trkpt>
      <trkpt lat="44.3241" lon="0.56827">
        <ele>193</ele>
        <time>2007-06-04T10:11:55Z</time>
      </trkpt>
      <trkpt lat="44.32333" lon="0.56873">
        <ele>189</ele>
        <time>2007-06-04T10:11:55Z</time>
      </trkpt>
      <trkpt lat="44.32321" lon="0.56867">
        <ele>189</ele>
        <time>2007-06-04T10:11:55Z</time>
      </trkpt>
      <trkpt lat="44.32266" lon="0.5683">
        <ele>185</ele>
        <time>2007-06-04T10:11:55Z</time>
      </trkpt>
      <trkpt lat="44.32205" lon="0.56822">
        <ele>188</ele>
        <time>2007-06-04T10:11:55Z</time>
      </trkpt>
      <trkpt lat="44.32165" lon="0.56819">
        <ele>191</ele>
        <time>2007-06-04T10:11:55Z</time>
      </trkpt>
      <trkpt lat="44.32109" lon="0.56827">
        <ele>194</ele>
        <time>2007-06-04T10:11:55Z</time>
      </trkpt>
      <trkpt lat="44.32091" lon="0.56831">
        <ele>196</ele>
        <time>2007-06-04T10:11:55Z</time>
      </trkpt>
      <trkpt lat="44.3202" lon="0.5682">
        <ele>202</ele>
        <time>2007-06-04T10:11:55Z</time>
      </trkpt>
      <trkpt lat="44.31936" lon="0.56818">
        <ele>202</ele>
        <time>2007-06-04T10:11:55Z</time>
      </trkpt>
      <trkpt lat="44.31904" lon="0.56822">
        <ele>201</ele>
        <time>2007-06-04T10:11:55Z</time>
      </trkpt>
      <trkpt lat="44.31851" lon="0.56835">
        <ele>200</ele>
        <time>2007-06-04T10:11:55Z</time>
      </trkpt>
      <trkpt lat="44.31791" lon="0.56864">
        <ele>198</ele>
        <time>2007-06-04T10:11:55Z</time>
      </trkpt>
      <trkpt lat="44.31774" lon="0.56878">
        <ele>197</ele>
        <time>2007-06-04T10:11:55Z</time>
      </trkpt>
      <trkpt lat="44.31735" lon="0.56923">
        <ele>195</ele>
        <time>2007-06-04T10:11:55Z</time>
      </trkpt>
      <trkpt lat="44.31691" lon="0.56951">
        <ele>194</ele>
        <time>2007-06-04T10:11:55Z</time>
      </trkpt>
      <trkpt lat="44.3168" lon="0.56956">
        <ele>193</ele>
        <time>2007-06-04T10:11:55Z</time>
      </trkpt>
      <trkpt lat="44.31699" lon="0.56915">
        <ele>193</ele>
        <time>2007-06-04T10:11:55Z</time>
      </trkpt>
      <trkpt lat="44.31707" lon="0.56888">
        <ele>192</ele>
        <time>2007-06-04T10:11:55Z</time>
      </trkpt>
      <trkpt lat="44.31707" lon="0.56857">
        <ele>192</ele>
        <time>2007-06-04T10:11:55Z</time>
      </trkpt>
      <trkpt lat="44.31702" lon="0.56824">
        <ele>192</ele>
        <time>2007-06-04T10:11:55Z</time>
      </trkpt>
      <trkpt lat="44.31703" lon="0.56799">
        <ele>191</ele>
        <time>2007-06-04T10:11:55Z</time>
      </trkpt>
      <trkpt lat="44.3171" lon="0.56666">
        <ele>190</ele>
        <time>2007-06-04T10:11:55Z</time>
      </trkpt>
      <trkpt lat="44.31706" lon="0.5663">
        <ele>189</ele>
        <time>2007-06-04T10:11:55Z</time>
      </trkpt>
      <trkpt lat="44.31681" lon="0.56501">
        <ele>186</ele>
        <time>2007-06-04T10:11:55Z</time>
      </trkpt>
      <trkpt lat="44.31667" lon="0.56409">
        <ele>184</ele>
        <time>2007-06-04T10:11:55Z</time>
      </trkpt>
      <trkpt lat="44.31665" lon="0.56349">
        <ele>184</ele>
        <time>2007-06-04T10:11:55Z</time>
      </trkpt>
      <trkpt lat="44.31655" lon="0.56312">
        <ele>184</ele>
        <time>2007-06-04T10:11:55Z</time>
      </trkpt>
      <trkpt lat="44.31651" lon="0.56287">
        <ele>185</ele>
        <time>2007-06-04T10:11:55Z</time>
      </trkpt>
      <trkpt lat="44.31653" lon="0.56254">
        <ele>185</ele>
        <time>2007-06-04T10:11:55Z</time>
      </trkpt>
      <trkpt lat="44.31651" lon="0.56188">
        <ele>186</ele>
        <time>2007-06-04T10:11:55Z</time>
      </trkpt>
      <trkpt lat="44.31643" lon="0.56162">
        <ele>187</ele>
        <time>2007-06-04T10:11:55Z</time>
      </trkpt>
      <trkpt lat="44.3164" lon="0.56099">
        <ele>187</ele>
        <time>2007-06-04T10:11:55Z</time>
      </trkpt>
      <trkpt lat="44.31656" lon="0.56074">
        <ele>189</ele>
        <time>2007-06-04T10:11:55Z</time>
      </trkpt>
      <trkpt lat="44.31665" lon="0.56038">
        <ele>188</ele>
        <time>2007-06-04T10:11:55Z</time>
      </trkpt>
      <trkpt lat="44.31669" lon="0.5599">
        <ele>187</ele>
        <time>2007-06-04T10:11:55Z</time>
      </trkpt>
      <trkpt lat="44.31653" lon="0.5596">
        <ele>184</ele>
        <time>2007-06-04T10:11:55Z</time>
      </trkpt>
      <trkpt lat="44.31653" lon="0.55928">
        <ele>183</ele>
        <time>2007-06-04T10:11:55Z</time>
      </trkpt>
      <trkpt lat="44.31655" lon="0.55903">
        <ele>183</ele>
        <time>2007-06-04T10:11:55Z</time>
      </trkpt>
      <trkpt lat="44.31646" lon="0.55894">
        <ele>181</ele>
        <time>2007-06-04T10:11:55Z</time>
      </trkpt>
      <trkpt lat="44.31638" lon="0.55883">
        <ele>179</ele>
        <time>2007-06-04T10:11:55Z</time>
      </trkpt>
      <trkpt lat="44.31639" lon="0.55858">
        <ele>179</ele>
        <time>2007-06-04T10:11:55Z</time>
      </trkpt>
      <trkpt lat="44.31638" lon="0.55832">
        <ele>179</ele>
        <time>2007-06-04T10:11:55Z</time>
      </trkpt>
      <trkpt lat="44.31637" lon="0.5581">
        <ele>178</ele>
        <time>2007-06-04T10:11:55Z</time>
      </trkpt>
      <trkpt lat="44.31635" lon="0.55793">
        <ele>178</ele>
        <time>2007-06-04T10:11:55Z</time>
      </trkpt>
      <trkpt lat="44.31631" lon="0.55771">
        <ele>175</ele>
        <time>2007-06-04T10:11:55Z</time>
      </trkpt>
      <trkpt lat="44.31621" lon="0.55748">
        <ele>170</ele>
        <time>2007-06-04T10:11:55Z</time>
      </trkpt>
      <trkpt lat="44.31596" lon="0.55669">
        <ele>158</ele>
        <time>2007-06-04T10:11:55Z</time>
      </trkpt>
      <trkpt lat="44.31599" lon="0.55629">
        <ele>158</ele>
        <time>2007-06-04T10:11:55Z</time>
      </trkpt>
      <trkpt lat="44.31603" lon="0.55593">
        <ele>158</ele>
        <time>2007-06-04T10:11:55Z</time>
      </trkpt>
      <trkpt lat="44.31608" lon="0.55535">
        <ele>157</ele>
        <time>2007-06-04T10:11:55Z</time>
      </trkpt>
      <trkpt lat="44.31607" lon="0.55482">
        <ele>151</ele>
        <time>2007-06-04T10:11:55Z</time>
      </trkpt>
      <trkpt lat="44.31559" lon="0.5557">
        <ele>144</ele>
        <time>2007-06-04T10:11:55Z</time>
      </trkpt>
      <trkpt lat="44.31562" lon="0.55618">
        <ele>147</ele>
        <time>2007-06-04T10:11:55Z</time>
      </trkpt>
      <trkpt lat="44.31547" lon="0.55656">
        <ele>143</ele>
        <time>2007-06-04T10:11:55Z</time>
      </trkpt>
      <trkpt lat="44.31527" lon="0.55697">
        <ele>137</ele>
        <time>2007-06-04T10:11:55Z</time>
      </trkpt>
      <trkpt lat="44.31512" lon="0.55751">
        <ele>136</ele>
        <time>2007-06-04T10:11:55Z</time>
      </trkpt>
      <trkpt lat="44.31492" lon="0.55805">
        <ele>134</ele>
        <time>2007-06-04T10:11:55Z</time>
      </trkpt>
      <trkpt lat="44.31452" lon="0.55863">
        <ele>127</ele>
        <time>2007-06-04T10:11:55Z</time>
      </trkpt>
      <trkpt lat="44.31398" lon="0.56035">
        <ele>120</ele>
        <time>2007-06-04T10:11:55Z</time>
      </trkpt>
      <trkpt lat="44.31349" lon="0.56027">
        <ele>120</ele>
        <time>2007-06-04T10:11:55Z</time>
      </trkpt>
      <trkpt lat="44.31317" lon="0.56028">
        <ele>124</ele>
        <time>2007-06-04T10:11:55Z</time>
      </trkpt>
      <trkpt lat="44.31292" lon="0.56041">
        <ele>128</ele>
        <time>2007-06-04T10:11:55Z</time>
      </trkpt>
      <trkpt lat="44.31278" lon="0.56059">
        <ele>131</ele>
        <time>2007-06-04T10:11:55Z</time>
      </trkpt>
      <trkpt lat="44.31275" lon="0.56105">
        <ele>133</ele>
        <time>2007-06-04T10:11:55Z</time>
      </trkpt>
      <trkpt lat="44.31273" lon="0.56145">
        <ele>135</ele>
        <time>2007-06-04T10:11:55Z</time>
      </trkpt>
      <trkpt lat="44.31221" lon="0.56191">
        <ele>144</ele>
        <time>2007-06-04T10:11:55Z</time>
      </trkpt>
      <trkpt lat="44.31176" lon="0.56216">
        <ele>152</ele>
        <time>2007-06-04T10:11:55Z</time>
      </trkpt>
      <trkpt lat="44.3114" lon="0.56211">
        <ele>159</ele>
        <time>2007-06-04T10:11:55Z</time>
      </trkpt>
      <trkpt lat="44.31114" lon="0.56218">
        <ele>167</ele>
        <time>2007-06-04T10:11:55Z</time>
      </trkpt>
      <trkpt lat="44.31075" lon="0.56239">
        <ele>174</ele>
        <time>2007-06-04T10:11:55Z</time>
      </trkpt>
      <trkpt lat="44.3104" lon="0.56258">
        <ele>178</ele>
        <time>2007-06-04T10:11:55Z</time>
      </trkpt>
      <trkpt lat="44.31009" lon="0.56265">
        <ele>178</ele>
        <time>2007-06-04T10:11:55Z</time>
      </trkpt>
      <trkpt lat="44.30896" lon="0.56225">
        <ele>177</ele>
        <time>2007-06-04T10:11:55Z</time>
      </trkpt>
      <trkpt lat="44.30847" lon="0.56289">
        <ele>184</ele>
        <time>2007-06-04T10:11:55Z</time>
      </trkpt>
      <trkpt lat="44.30857" lon="0.5637">
        <ele>185</ele>
        <time>2007-06-04T10:11:55Z</time>
      </trkpt>
      <trkpt lat="44.30865" lon="0.56446">
        <ele>187</ele>
        <time>2007-06-04T10:11:55Z</time>
      </trkpt>
      <trkpt lat="44.30849" lon="0.56467">
        <ele>187</ele>
        <time>2007-06-04T10:11:55Z</time>
      </trkpt>
      <trkpt lat="44.30832" lon="0.56502">
        <ele>187</ele>
        <time>2007-06-04T10:11:55Z</time>
      </trkpt>
      <trkpt lat="44.30817" lon="0.56553">
        <ele>188</ele>
        <time>2007-06-04T10:11:55Z</time>
      </trkpt>
      <trkpt lat="44.3079" lon="0.56599">
        <ele>189</ele>
        <time>2007-06-04T10:11:55Z</time>
      </trkpt>
      <trkpt lat="44.30743" lon="0.56694">
        <ele>181</ele>
        <time>2007-06-04T10:11:55Z</time>
      </trkpt>
      <trkpt lat="44.30744" lon="0.56719">
        <ele>177</ele>
        <time>2007-06-04T10:11:55Z</time>
      </trkpt>
      <trkpt lat="44.30759" lon="0.56735">
        <ele>177</ele>
        <time>2007-06-04T10:11:55Z</time>
      </trkpt>
      <trkpt lat="44.30849" lon="0.56805">
        <ele>186</ele>
        <time>2007-06-04T10:11:55Z</time>
      </trkpt>
      <trkpt lat="44.30895" lon="0.5686">
        <ele>190</ele>
        <time>2007-06-04T10:11:55Z</time>
      </trkpt>
      <trkpt lat="44.30887" lon="0.56909">
        <ele>190</ele>
        <time>2007-06-04T10:11:55Z</time>
      </trkpt>
      <trkpt lat="44.30883" lon="0.56969">
        <ele>191</ele>
        <time>2007-06-04T10:11:55Z</time>
      </trkpt>
      <trkpt lat="44.30879" lon="0.57055">
        <ele>191</ele>
        <time>2007-06-04T10:11:55Z</time>
      </trkpt>
      <trkpt lat="44.3087" lon="0.57146">
        <ele>191</ele>
        <time>2007-06-04T10:11:55Z</time>
      </trkpt>
      <trkpt lat="44.30864" lon="0.57179">
        <ele>191</ele>
        <time>2007-06-04T10:11:55Z</time>
      </trkpt>
      <trkpt lat="44.30846" lon="0.57216">
        <ele>190</ele>
        <time>2007-06-04T10:11:55Z</time>
      </trkpt>
      <trkpt lat="44.30837" lon="0.57257">
        <ele>189</ele>
        <time>2007-06-04T10:11:55Z</time>
      </trkpt>
      <trkpt lat="44.3083" lon="0.57294">
        <ele>189</ele>
        <time>2007-06-04T10:11:55Z</time>
      </trkpt>
      <trkpt lat="44.30823" lon="0.57328">
        <ele>189</ele>
        <time>2007-06-04T10:11:55Z</time>
      </trkpt>
      <trkpt lat="44.30821" lon="0.5735">
        <ele>189</ele>
        <time>2007-06-04T10:11:55Z</time>
      </trkpt>
      <trkpt lat="44.30837" lon="0.57376">
        <ele>190</ele>
        <time>2007-06-04T10:11:55Z</time>
      </trkpt>
      <trkpt lat="44.30842" lon="0.57397">
        <ele>190</ele>
        <time>2007-06-04T10:11:55Z</time>
      </trkpt>
      <trkpt lat="44.30842" lon="0.57421">
        <ele>189</ele>
        <time>2007-06-04T10:11:55Z</time>
      </trkpt>
      <trkpt lat="44.30851" lon="0.57441">
        <ele>188</ele>
        <time>2007-06-04T10:11:55Z</time>
      </trkpt>
      <trkpt lat="44.30864" lon="0.57472">
        <ele>186</ele>
        <time>2007-06-04T10:11:55Z</time>
      </trkpt>
      <trkpt lat="44.30766" lon="0.57469">
        <ele>184</ele>
        <time>2007-06-04T10:11:55Z</time>
      </trkpt>
      <trkpt lat="44.30719" lon="0.57536">
        <ele>170</ele>
        <time>2007-06-04T10:11:55Z</time>
      </trkpt>
      <trkpt lat="44.30709" lon="0.57521">
        <ele>172</ele>
        <time>2007-06-04T10:11:55Z</time>
      </trkpt>
      <trkpt lat="44.30695" lon="0.5754">
        <ele>168</ele>
        <time>2007-06-04T10:11:55Z</time>
      </trkpt>
      <trkpt lat="44.30666" lon="0.57614">
        <ele>156</ele>
        <time>2007-06-04T10:11:55Z</time>
      </trkpt>
      <trkpt lat="44.30635" lon="0.57656">
        <ele>151</ele>
        <time>2007-06-04T10:11:55Z</time>
      </trkpt>
      <trkpt lat="44.30662" lon="0.57688">
        <ele>144</ele>
        <time>2007-06-04T10:11:55Z</time>
      </trkpt>
      <trkpt lat="44.30652" lon="0.57699">
        <ele>143</ele>
        <time>2007-06-04T10:11:55Z</time>
      </trkpt>
      <trkpt lat="44.30624" lon="0.57708">
        <ele>141</ele>
        <time>2007-06-04T10:11:55Z</time>
      </trkpt>
      <trkpt lat="44.30601" lon="0.57707">
        <ele>141</ele>
        <time>2007-06-04T10:11:55Z</time>
      </trkpt>
      <trkpt lat="44.30591" lon="0.57714">
        <ele>140</ele>
        <time>2007-06-04T10:11:55Z</time>
      </trkpt>
      <trkpt lat="44.3059" lon="0.57736">
        <ele>135</ele>
        <time>2007-06-04T10:11:55Z</time>
      </trkpt>
      <trkpt lat="44.30596" lon="0.57762">
        <ele>131</ele>
        <time>2007-06-04T10:11:55Z</time>
      </trkpt>
      <trkpt lat="44.30615" lon="0.57837">
        <ele>125</ele>
        <time>2007-06-04T10:11:55Z</time>
      </trkpt>
      <trkpt lat="44.3064" lon="0.57903">
        <ele>127</ele>
        <time>2007-06-04T10:11:55Z</time>
      </trkpt>
      <trkpt lat="44.3071" lon="0.58083">
        <ele>133</ele>
        <time>2007-06-04T10:11:55Z</time>
      </trkpt>
      <trkpt lat="44.3076" lon="0.58177">
        <ele>135</ele>
        <time>2007-06-04T10:11:55Z</time>
      </trkpt>
      <trkpt lat="44.30785" lon="0.58232">
        <ele>133</ele>
        <time>2007-06-04T10:11:55Z</time>
      </trkpt>
      <trkpt lat="44.30769" lon="0.58256">
        <ele>131</ele>
        <time>2007-06-04T10:11:55Z</time>
      </trkpt>
      <trkpt lat="44.30821" lon="0.58356">
        <ele>129</ele>
        <time>2007-06-04T10:11:55Z</time>
      </trkpt>
      <trkpt lat="44.30843" lon="0.58332">
        <ele>131</ele>
        <time>2007-06-04T10:11:55Z</time>
      </trkpt>
      <trkpt lat="44.30859" lon="0.5838">
        <ele>130</ele>
        <time>2007-06-04T10:11:55Z</time>
      </trkpt>
      <trkpt lat="44.30865" lon="0.58429">
        <ele>127</ele>
        <time>2007-06-04T10:11:55Z</time>
      </trkpt>
      <trkpt lat="44.30865" lon="0.58479">
        <ele>124</ele>
        <time>2007-06-04T10:11:55Z</time>
      </trkpt>
      <trkpt lat="44.30855" lon="0.58517">
        <ele>122</ele>
        <time>2007-06-04T10:11:55Z</time>
      </trkpt>
      <trkpt lat="44.30842" lon="0.58542">
        <ele>121</ele>
        <time>2007-06-04T10:11:55Z</time>
      </trkpt>
      <trkpt lat="44.3081" lon="0.58588">
        <ele>117</ele>
        <time>2007-06-04T10:11:55Z</time>
      </trkpt>
      <trkpt lat="44.30784" lon="0.58625">
        <ele>115</ele>
        <time>2007-06-04T10:11:55Z</time>
      </trkpt>
      <trkpt lat="44.30776" lon="0.58647">
        <ele>114</ele>
        <time>2007-06-04T10:11:55Z</time>
      </trkpt>
      <trkpt lat="44.30767" lon="0.58688">
        <ele>112</ele>
        <time>2007-06-04T10:11:55Z</time>
      </trkpt>
      <trkpt lat="44.30778" lon="0.58705">
        <ele>112</ele>
        <time>2007-06-04T10:11:55Z</time>
      </trkpt>
      <trkpt lat="44.3091" lon="0.59002">
        <ele>117</ele>
        <time>2007-06-04T10:11:55Z</time>
      </trkpt>
      <trkpt lat="44.30798" lon="0.59059">
        <ele>112</ele>
        <time>2007-06-04T10:11:55Z</time>
      </trkpt>
      <trkpt lat="44.30783" lon="0.59081">
        <ele>111</ele>
        <time>2007-06-04T10:11:55Z</time>
      </trkpt>
      <trkpt lat="44.30776" lon="0.59111">
        <ele>111</ele>
        <time>2007-06-04T10:11:55Z</time>
      </trkpt>
      <trkpt lat="44.30787" lon="0.59147">
        <ele>111</ele>
        <time>2007-06-04T10:11:55Z</time>
      </trkpt>
      <trkpt lat="44.30781" lon="0.5917">
        <ele>111</ele>
        <time>2007-06-04T10:11:55Z</time>
      </trkpt>
      <trkpt lat="44.30751" lon="0.59237">
        <ele>111</ele>
        <time>2007-06-04T10:11:55Z</time>
      </trkpt>
      <trkpt lat="44.30707" lon="0.59221">
        <ele>110</ele>
        <time>2007-06-04T10:11:55Z</time>
      </trkpt>
      <trkpt lat="44.30678" lon="0.59274">
        <ele>118</ele>
        <time>2007-06-04T10:11:55Z</time>
      </trkpt>
      <trkpt lat="44.30684" lon="0.59292">
        <ele>118</ele>
        <time>2007-06-04T10:11:55Z</time>
      </trkpt>
      <trkpt lat="44.30706" lon="0.59323">
        <ele>116</ele>
        <time>2007-06-04T10:11:55Z</time>
      </trkpt>
      <trkpt lat="44.30721" lon="0.59346">
        <ele>117</ele>
        <time>2007-06-04T10:11:55Z</time>
      </trkpt>
      <trkpt lat="44.30726" lon="0.59375">
        <ele>120</ele>
        <time>2007-06-04T10:11:55Z</time>
      </trkpt>
      <trkpt lat="44.3074" lon="0.594">
        <ele>122</ele>
        <time>2007-06-04T10:11:55Z</time>
      </trkpt>
      <trkpt lat="44.30751" lon="0.59422">
        <ele>123</ele>
        <time>2007-06-04T10:11:55Z</time>
      </trkpt>
      <trkpt lat="44.30759" lon="0.59439">
        <ele>125</ele>
        <time>2007-06-04T10:11:55Z</time>
      </trkpt>
      <trkpt lat="44.30768" lon="0.59463">
        <ele>126</ele>
        <time>2007-06-04T10:11:55Z</time>
      </trkpt>
      <trkpt lat="44.30764" lon="0.59492">
        <ele>130</ele>
        <time>2007-06-04T10:11:55Z</time>
      </trkpt>
      <trkpt lat="44.30755" lon="0.59512">
        <ele>133</ele>
        <time>2007-06-04T10:11:55Z</time>
      </trkpt>
      <trkpt lat="44.3076" lon="0.59526">
        <ele>132</ele>
        <time>2007-06-04T10:11:55Z</time>
      </trkpt>
      <trkpt lat="44.30764" lon="0.59543">
        <ele>132</ele>
        <time>2007-06-04T10:11:55Z</time>
      </trkpt>
      <trkpt lat="44.30753" lon="0.59567">
        <ele>136</ele>
        <time>2007-06-04T10:11:55Z</time>
      </trkpt>
      <trkpt lat="44.30724" lon="0.59621">
        <ele>147</ele>
        <time>2007-06-04T10:11:55Z</time>
      </trkpt>
      <trkpt lat="44.30721" lon="0.5964">
        <ele>150</ele>
        <time>2007-06-04T10:11:55Z</time>
      </trkpt>
      <trkpt lat="44.30719" lon="0.59681">
        <ele>155</ele>
        <time>2007-06-04T10:11:55Z</time>
      </trkpt>
      <trkpt lat="44.30713" lon="0.59694">
        <ele>158</ele>
        <time>2007-06-04T10:11:55Z</time>
      </trkpt>
      <trkpt lat="44.30697" lon="0.59715">
        <ele>163</ele>
        <time>2007-06-04T10:11:55Z</time>
      </trkpt>
      <trkpt lat="44.30678" lon="0.5974">
        <ele>168</ele>
        <time>2007-06-04T10:11:55Z</time>
      </trkpt>
      <trkpt lat="44.30674" lon="0.59753">
        <ele>171</ele>
        <time>2007-06-04T10:11:55Z</time>
      </trkpt>
      <trkpt lat="44.30683" lon="0.59771">
        <ele>173</ele>
        <time>2007-06-04T10:11:55Z</time>
      </trkpt>
      <trkpt lat="44.30703" lon="0.59807">
        <ele>175</ele>
        <time>2007-06-04T10:11:55Z</time>
      </trkpt>
      <trkpt lat="44.30729" lon="0.59834">
        <ele>175</ele>
        <time>2007-06-04T10:11:55Z</time>
      </trkpt>
      <trkpt lat="44.30722" lon="0.59845">
        <ele>177</ele>
        <time>2007-06-04T10:11:55Z</time>
      </trkpt>
      <trkpt lat="44.30712" lon="0.59847">
        <ele>179</ele>
        <time>2007-06-04T10:11:55Z</time>
      </trkpt>
      <trkpt lat="44.30689" lon="0.59824">
        <ele>179</ele>
        <time>2007-06-04T10:11:55Z</time>
      </trkpt>
      <trkpt lat="44.30632" lon="0.59889">
        <ele>188</ele>
        <time>2007-06-04T10:11:55Z</time>
      </trkpt>
      <trkpt lat="44.30647" lon="0.59927">
        <ele>189</ele>
        <time>2007-06-04T10:11:55Z</time>
      </trkpt>
      <trkpt lat="44.30657" lon="0.59976">
        <ele>189</ele>
        <time>2007-06-04T10:11:55Z</time>
      </trkpt>
      <trkpt lat="44.30715" lon="0.60323">
        <ele>190</ele>
        <time>2007-06-04T10:11:55Z</time>
      </trkpt>
      <trkpt lat="44.30716" lon="0.60357">
        <ele>190</ele>
        <time>2007-06-04T10:11:55Z</time>
      </trkpt>
      <trkpt lat="44.3071" lon="0.60452">
        <ele>190</ele>
        <time>2007-06-04T10:11:55Z</time>
      </trkpt>
      <trkpt lat="44.30708" lon="0.60478">
        <ele>189</ele>
        <time>2007-06-04T10:11:55Z</time>
      </trkpt>
      <trkpt lat="44.30699" lon="0.60497">
        <ele>189</ele>
        <time>2007-06-04T10:11:55Z</time>
      </trkpt>
      <trkpt lat="44.30672" lon="0.60551">
        <ele>189</ele>
        <time>2007-06-04T10:11:55Z</time>
      </trkpt>
      <trkpt lat="44.30646" lon="0.60604">
        <ele>188</ele>
        <time>2007-06-04T10:11:55Z</time>
      </trkpt>
      <trkpt lat="44.30627" lon="0.60645">
        <ele>187</ele>
        <time>2007-06-04T10:11:55Z</time>
      </trkpt>
    </trkseg>
  </trk>
</gpx>